Wind_Speed
31 27 26 25 24 26 23 29 30 28 28 27 28 26 25 24 26 24 23 20 18 19 20 20 19 20 21 22 23 25 23 20 24 21 21 25 16 11 8 8 9 12 15 17 14
30 29 27 24 24 22 20 26 29 28 26 25 25 24 25 25 27 25 23 21 20 20 19 18 18 18 19 19 20 22 21 21 27 30 24 22 15 11 5 4 5 9 17 17 15
34 33 32 27 24 22 21 21 24 27 26 23 24 25 27 27 28 25 22 21 21 18 18 18 18 18 16 17 18 21 21 24 31 32 25 21 16 13 8 7 8 15 16 10 11
40 40 38 32 28 25 24 24 26 28 29 29 29 29 29 28 26 24 22 20 20 18 18 17 17 17 16 15 16 19 21 23 29 32 28 23 21 15 13 14 17 18 16 11 13
26 28 28 29 31 30 28 27 28 27 28 29 30 26 26 24 22 21 20 19 18 17 18 18 18 18 17 17 17 19 21 21 27 32 32 28 25 18 21 25 19 18 20 17 12
18 18 19 19 21 29 33 32 31 26 23 21 21 22 22 21 19 18 18 18 18 17 18 18 19 20 20 20 22 21 21 23 26 30 31 30 27 25 26 22 19 21 22 22 16
20 19 17 13 13 13 15 17 19 19 19 20 20 20 20 19 17 16 16 17 16 18 20 20 20 20 20 22 23 23 22 23 26 28 28 30 29 30 27 23 21 22 23 26 25
16 16 14 14 15 16 16 16 16 16 18 19 19 18 18 17 15 15 16 17 17 19 20 20 20 20 21 22 23 23 23 24 27 27 28 27 33 29 28 24 22 23 25 27 27
16 16 16 16 17 17 17 17 17 17 16 17 17 17 16 14 13 14 15 15 16 17 17 17 18 19 19 19 20 22 24 24 29 28 29 29 31 30 30 28 27 26 27 29 31
12 13 13 13 14 15 15 16 15 15 16 16 16 16 16 15 14 13 13 13 13 14 14 14 14 15 16 14 11 21 20 23 25 25 27 30 32 31 32 31 30 29 28 30 32
12 11 11 10 10 11 12 13 13 13 14 15 15 16 15 15 14 13 12 12 13 12 11 11 11 15 15 16 18 18 18 21 23 23 24 26 29 30 30 30 30 30 28 28 31
11 10 9 8 8 8 9 9 10 11 10 11 11 12 9 8 9 9 10 9 10 12 14 14 17 18 18 18 18 19 19 23 23 23 23 25 27 29 30 30 31 31 30 29 31
11 9 8 8 6 6 5 6 8 9 9 10 10 10 7 7 7 7 8 8 9 11 12 13 16 17 18 19 20 23 23 27 27 27 26 27 28 29 31 33 33 34 34 33 33
10 8 7 6 6 5 4 3 3 4 5 6 6 5 5 6 8 8 8 7 8 10 13 14 16 16 16 17 18 20 22 22 24 24 19 28 21 34 33 36 37 37 38 39 38
9 8 6 5 4 4 3 3 3 4 6 7 6 5 6 10 9 12 12 12 13 15 16 20 17 17 19 19 19 21 22 22 23 24 25 28 28 32 36 34 38 41 42 42 42
10 9 7 6 5 3 4 5 4 5 10 7 6 8 9 9 11 11 13 14 15 17 18 20 19 18 20 18 17 17 17 16 17 18 22 22 19 23 33 30 34 36 38 41 44
12 12 11 9 7 6 5 6 7 7 7 9 10 9 11 13 15 17 17 17 17 19 22 21 22 21 21 21 18 18 18 14 13 15 13 22 24 28 27 28 29 31 34 37 39
14 14 14 13 11 10 9 9 10 10 11 11 12 13 14 15 16 17 18 20 20 20 22 23 28 20 21 22 22 19 17 16 17 18 17 26 29 31 29 29 29 30 30 30 31
17 16 16 16 16 15 14 13 14 16 16 16 15 16 16 17 19 19 20 22 21 21 22 24 27 26 23 21 21 23 23 23 26 28 28 23 31 31 31 31 31 31 32 34 34
21 20 19 19 19 19 18 18 20 20 20 20 19 20 21 21 21 20 22 21 22 21 19 21 24 20 21 21 22 23 25 26 27 25 22 23 30 26 30 30 32 32 33 33 33
21 21 21 21 22 22 21 22 23 24 23 23 23 25 24 24 23 23 24 23 23 22 21 21 21 25 24 23 26 25 26 25 26 28 28 27 22 37 31 30 30 29 27 24 24
23 22 20 21 24 23 24 25 25 25 26 25 26 27 27 26 26 26 26 28 25 24 24 24 25 26 28 28 28 27 28 27 26 30 31 31 32 34 31 30 29 26 24 24 23
23 23 23 23 24 24 26 26 26 26 27 27 27 27 28 29 30 28 28 29 28 27 27 26 28 26 30 29 31 28 28 28 28 29 31 33 26 35 29 29 28 25 24 25 29
21 21 22 24 26 26 27 28 27 27 28 28 29 29 29 30 30 31 30 32 30 30 29 30 29 28 28 32 33 31 30 30 30 30 31 34 30 36 32 29 28 28 28 28 31
19 19 19 21 23 24 25 26 25 28 28 27 27 25 29 31 29 30 31 33 32 32 32 34 32 32 31 33 33 34 33 33 32 32 33 28 33 29 34 27 28 29 28 29 31
18 15 17 17 18 18 19 19 21 23 24 23 24 24 29 27 27 31 29 31 32 32 34 35 33 33 33 35 35 35 32 33 34 32 31 30 29 31 30 30 29 28 28 30 30
19 16 15 15 14 14 15 16 16 17 18 20 22 24 25 24 28 29 29 32 32 32 32 32 31 35 34 35 36 35 27 33 33 31 30 30 27 32 29 29 28 28 28 30 32
Wind_Direction
269 266 271 276 283 285 283 253 258 278 275 272 274 276 275 278 281 281 279 271 260 257 255 257 255 257 256 254 244 239 232 230 226 241 238 249 250 259 271 285 283 274 260 260 279
265 269 272 275 277 281 275 256 269 272 272 271 273 274 279 282 280 279 277 268 263 258 257 252 256 255 255 248 238 237 232 229 224 235 240 248 254 247 235 267 301 284 268 272 272
273 274 273 272 275 270 266 259 259 263 265 273 275 276 278 281 278 275 271 269 265 255 250 252 253 252 249 244 236 239 234 231 227 235 241 249 252 241 223 228 278 266 266 281 285
276 277 272 270 268 265 261 259 262 264 267 277 280 279 276 276 274 269 267 263 264 255 249 250 252 246 241 240 241 244 244 241 231 235 244 245 245 245 231 232 248 245 263 266 281
282 278 278 275 264 258 258 262 268 275 278 279 277 270 266 273 269 264 261 261 260 257 252 249 248 247 240 238 240 244 246 244 236 234 239 244 244 239 233 228 234 238 251 247 251
301 297 291 286 278 262 261 266 270 275 271 269 269 267 268 268 265 263 260 259 258 254 253 249 245 244 243 240 242 245 247 246 242 237 239 245 248 247 250 249 241 235 238 245 218
288 290 289 289 288 283 271 264 264 265 267 269 269 267 268 267 266 264 260 258 257 253 251 253 252 253 254 253 253 255 255 258 254 251 245 247 254 251 253 251 252 245 241 247 250
287 286 281 278 275 274 269 265 264 265 267 266 268 268 268 266 267 265 261 258 255 253 252 253 256 259 259 260 259 258 258 257 257 257 258 257 260 259 259 259 252 245 243 245 250
287 283 279 274 273 271 266 264 263 261 259 260 262 264 267 269 266 264 261 258 258 257 257 259 256 259 262 267 269 263 262 258 265 260 261 260 259 268 265 262 258 251 246 246 246
303 297 288 279 271 267 263 261 260 258 258 260 261 262 263 264 264 264 264 266 265 263 264 266 269 269 263 266 236 274 272 271 268 267 266 264 265 266 267 266 263 257 251 246 246
308 301 295 287 279 271 266 264 261 259 258 259 259 261 265 266 265 264 262 260 264 265 270 272 263 257 263 260 261 269 270 271 270 270 270 268 269 269 266 265 263 261 254 247 241
312 309 305 296 281 271 264 262 258 256 258 257 257 259 258 260 260 258 256 259 260 255 252 253 253 259 259 259 260 262 264 268 271 268 269 271 274 274 272 268 263 260 260 253 247
319 310 300 295 291 284 274 257 251 255 253 254 252 252 248 251 249 256 260 256 252 259 263 257 267 269 269 269 268 266 262 264 267 271 269 267 266 267 268 269 267 265 264 260 257
321 326 321 306 292 285 270 257 246 251 235 234 234 231 228 215 244 249 251 247 243 256 262 264 266 269 271 273 273 272 273 272 273 272 271 267 258 268 259 259 259 258 261 264 261
317 320 324 323 326 313 277 249 233 225 173 238 244 237 224 226 243 243 244 245 250 259 264 267 269 271 269 271 272 275 280 279 277 275 270 273 268 261 268 265 258 258 258 259 258
300 296 296 298 301 303 289 271 240 228 229 246 254 259 244 240 250 252 260 265 273 277 276 274 271 270 272 273 277 278 278 275 274 274 275 264 275 260 269 269 263 259 257 257 257
292 285 278 275 275 270 274 272 255 228 248 255 256 249 248 248 250 252 260 268 276 283 284 275 275 275 278 281 278 276 275 289 287 277 264 275 279 264 279 274 270 268 265 262 261
289 282 278 270 263 261 256 258 256 258 255 259 260 259 260 263 261 259 268 276 279 276 268 277 289 278 280 281 283 278 277 267 260 263 269 278 277 277 278 279 276 275 274 272 270
285 281 275 271 267 263 261 257 255 255 257 258 259 258 260 265 266 265 267 269 273 268 267 274 270 278 277 275 274 277 273 274 274 273 274 269 279 278 278 278 277 275 275 275 274
287 279 273 268 265 263 261 260 259 257 257 259 259 258 256 260 260 259 263 265 264 265 265 271 275 277 278 278 277 278 281 281 280 277 277 275 278 275 277 275 276 276 275 273 272
290 282 273 268 264 263 261 258 258 259 259 259 260 261 261 262 260 262 265 266 265 267 268 270 273 279 281 280 282 283 282 281 279 281 280 279 276 284 281 276 275 273 272 275 282
288 280 271 266 265 262 260 258 257 257 259 258 260 262 264 265 264 265 265 264 264 265 266 267 272 277 279 280 280 282 286 285 285 289 285 280 272 281 274 274 269 268 270 274 289
290 280 271 263 258 259 257 257 257 257 260 263 263 261 263 264 265 263 262 264 265 265 267 270 271 276 278 276 276 278 278 280 283 284 285 284 274 276 269 272 267 264 271 284 294
297 286 275 266 262 258 260 260 262 260 259 260 262 264 266 265 266 269 265 265 265 266 268 269 272 272 271 271 280 280 278 280 283 287 289 286 264 273 266 268 265 265 272 283 294
307 297 285 275 267 266 263 264 263 265 263 263 263 262 262 264 266 266 267 269 270 272 274 275 276 276 274 276 278 277 279 280 284 288 292 279 271 265 269 269 268 269 272 282 292
315 306 298 289 282 277 273 271 268 268 266 265 264 260 261 268 270 270 270 272 274 276 277 277 280 279 278 279 278 277 281 283 286 293 292 281 272 263 266 270 273 274 279 284 292
314 313 303 298 298 293 288 282 276 272 272 268 266 265 271 270 267 272 275 277 278 279 280 281 281 279 278 275 277 279 281 281 286 289 287 286 275 264 264 267 272 275 281 287 293
Height
5866 5866 5865 5864 5863 5861 5859 5862 5866 5867 5867 5866 5866 5865 5865 5865 5864 5864 5863 5863 5864 5864 5865 5866 5867 5869 5871 5873 5875 5877 5881 5884 5885 5884 5884 5884 5889 5891 5892 5892 5892 5892 5893 5893 5893
5859 5859 5859 5858 5858 5857 5856 5858 5860 5861 5861 5861 5860 5860 5860 5859 5859 5859 5859 5858 5860 5859 5860 5862 5863 5864 5866 5868 5870 5873 5876 5878 5878 5876 5879 5882 5886 5888 5889 5889 5889 5889 5888 5889 5891
5853 5852 5852 5852 5852 5852 5852 5852 5854 5855 5855 5855 5855 5854 5854 5853 5854 5854 5854 5854 5855 5856 5856 5857 5858 5860 5861 5863 5866 5869 5872 5872 5872 5873 5875 5878 5881 5884 5886 5886 5886 5884 5883 5886 5887
5845 5844 5844 5845 5846 5846 5847 5847 5848 5848 5849 5848 5849 5848 5849 5849 5850 5849 5849 5849 5850 5851 5852 5853 5854 5855 5856 5859 5862 5865 5866 5867 5868 5869 5872 5873 5875 5880 5882 5881 5879 5878 5879 5881 5881
5838 5837 5836 5836 5837 5839 5840 5840 5841 5842 5842 5842 5842 5843 5843 5844 5844 5843 5844 5845 5845 5847 5848 5849 5850 5852 5852 5854 5857 5859 5860 5862 5863 5864 5865 5867 5869 5874 5873 5871 5875 5876 5874 5875 5876
5833 5832 5831 5830 5830 5830 5832 5833 5834 5836 5836 5836 5836 5837 5838 5839 5838 5838 5839 5840 5841 5842 5843 5843 5845 5847 5848 5850 5852 5855 5855 5856 5857 5859 5861 5864 5866 5867 5868 5872 5873 5873 5872 5872 5874
5829 5827 5826 5825 5825 5825 5825 5826 5828 5830 5831 5830 5831 5832 5833 5834 5833 5833 5834 5835 5836 5836 5837 5839 5840 5842 5845 5846 5847 5850 5851 5852 5853 5854 5857 5859 5862 5862 5863 5866 5868 5868 5868 5868 5868
5825 5823 5822 5821 5821 5821 5822 5822 5824 5824 5825 5825 5826 5827 5828 5829 5828 5829 5829 5830 5830 5831 5833 5834 5836 5838 5840 5842 5843 5845 5847 5848 5847 5850 5851 5855 5852 5856 5858 5860 5862 5863 5863 5862 5863
5820 5819 5818 5817 5816 5816 5817 5818 5819 5820 5820 5820 5821 5822 5824 5824 5825 5824 5825 5826 5826 5827 5829 5830 5831 5833 5835 5838 5839 5840 5841 5843 5841 5844 5845 5847 5845 5848 5850 5852 5854 5856 5856 5856 5856
5816 5815 5814 5812 5812 5812 5813 5814 5814 5815 5815 5816 5817 5819 5820 5821 5821 5821 5821 5822 5823 5824 5825 5826 5828 5829 5831 5833 5836 5833 5835 5836 5836 5837 5838 5838 5838 5840 5841 5842 5845 5847 5849 5849 5849
5813 5812 5810 5809 5809 5808 5809 5810 5812 5812 5811 5813 5814 5814 5815 5817 5817 5817 5818 5818 5820 5821 5822 5823 5825 5825 5826 5827 5827 5829 5830 5830 5830 5831 5831 5831 5830 5832 5833 5834 5835 5837 5840 5842 5842
5810 5809 5807 5806 5806 5805 5805 5806 5806 5808 5808 5809 5809 5810 5812 5812 5813 5813 5814 5816 5817 5818 5818 5820 5820 5820 5822 5822 5824 5824 5825 5823 5824 5824 5826 5825 5824 5824 5825 5826 5827 5829 5830 5833 5835
5808 5806 5805 5804 5803 5803 5802 5803 5803 5804 5806 5807 5807 5808 5809 5810 5810 5811 5812 5813 5814 5815 5815 5816 5816 5816 5817 5818 5818 5818 5819 5818 5819 5819 5819 5820 5819 5818 5817 5817 5819 5821 5823 5825 5826
5806 5804 5802 5801 5802 5801 5800 5801 5801 5803 5805 5806 5805 5806 5807 5808 5808 5809 5809 5811 5811 5812 5811 5812 5812 5812 5812 5812 5813 5812 5812 5813 5812 5813 5815 5813 5819 5810 5811 5811 5811 5812 5813 5815 5817
5804 5803 5801 5799 5799 5799 5799 5799 5800 5801 5806 5804 5803 5804 5805 5806 5807 5807 5807 5808 5809 5809 5810 5807 5808 5808 5807 5808 5807 5807 5806 5806 5806 5806 5806 5805 5807 5802 5803 5803 5804 5804 5804 5805 5806
5802 5801 5800 5799 5798 5798 5798 5798 5799 5801 5801 5800 5801 5801 5802 5803 5803 5804 5804 5805 5805 5804 5804 5803 5803 5803 5801 5802 5802 5802 5801 5800 5799 5799 5798 5798 5800 5799 5794 5795 5794 5794 5794 5794 5795
5799 5798 5797 5797 5797 5796 5796 5796 5797 5797 5798 5798 5797 5797 5798 5799 5800 5800 5800 5800 5801 5800 5798 5798 5798 5797 5796 5796 5797 5797 5796 5797 5797 5794 5797 5791 5791 5787 5787 5786 5785 5784 5783 5783 5784
5795 5794 5793 5793 5793 5793 5793 5794 5793 5793 5793 5793 5793 5793 5793 5794 5794 5794 5794 5794 5794 5794 5793 5792 5788 5792 5791 5790 5790 5790 5791 5791 5791 5792 5792 5784 5782 5780 5779 5778 5777 5776 5775 5775 5774
5790 5789 5788 5788 5788 5788 5789 5789 5788 5788 5788 5788 5788 5788 5788 5788 5788 5789 5788 5788 5788 5788 5788 5786 5785 5784 5784 5784 5785 5783 5784 5784 5782 5781 5779 5778 5773 5772 5771 5769 5768 5767 5766 5765 5765
5784 5783 5783 5782 5782 5782 5783 5783 5782 5782 5782 5782 5783 5783 5782 5782 5782 5782 5782 5783 5782 5781 5781 5780 5778 5778 5778 5778 5777 5776 5776 5775 5773 5773 5771 5769 5765 5764 5763 5761 5759 5758 5757 5756 5754
5776 5776 5775 5775 5775 5775 5776 5775 5775 5775 5776 5776 5776 5775 5775 5775 5775 5775 5775 5775 5774 5774 5774 5773 5773 5770 5770 5770 5768 5768 5767 5767 5766 5764 5763 5761 5760 5753 5753 5752 5750 5749 5747 5746 5744
5769 5768 5767 5767 5768 5768 5768 5767 5768 5767 5767 5768 5768 5767 5767 5767 5767 5767 5767 5766 5767 5767 5766 5766 5765 5763 5763 5761 5760 5759 5758 5757 5757 5755 5753 5751 5748 5745 5744 5743 5742 5741 5739 5739 5737
5760 5759 5759 5759 5759 5758 5758 5759 5759 5760 5759 5759 5759 5759 5759 5758 5758 5759 5759 5759 5758 5759 5758 5758 5757 5756 5753 5754 5751 5751 5750 5749 5748 5746 5745 5742 5740 5734 5734 5733 5732 5732 5731 5730 5729
5754 5752 5750 5750 5749 5750 5749 5750 5751 5751 5751 5751 5750 5750 5751 5750 5750 5749 5750 5749 5750 5749 5749 5748 5748 5748 5748 5744 5742 5741 5741 5740 5738 5737 5734 5731 5730 5723 5725 5725 5724 5724 5723 5722 5720
5747 5744 5742 5741 5741 5740 5741 5742 5742 5741 5742 5743 5743 5744 5742 5741 5742 5741 5741 5740 5740 5740 5739 5738 5739 5737 5737 5734 5733 5732 5731 5730 5728 5726 5724 5723 5718 5719 5714 5716 5716 5716 5715 5713 5711
5741 5739 5737 5735 5734 5734 5733 5734 5734 5733 5734 5735 5735 5735 5733 5735 5735 5732 5733 5732 5731 5731 5729 5728 5728 5727 5726 5724 5723 5722 5723 5719 5717 5716 5713 5711 5711 5708 5708 5707 5707 5706 5706 5704 5701
5736 5733 5731 5730 5729 5728 5727 5726 5726 5726 5727 5726 5727 5727 5727 5728 5725 5726 5725 5724 5723 5722 5721 5720 5719 5716 5716 5714 5712 5713 5715 5709 5707 5706 5705 5703 5703 5700 5700 5699 5699 5697 5697 5695 5692